This is the latest recevied weather packets stored in our database for station/object N9ALD. If no packets are shown the sender has not sent any weather packets the latest 10 day(s).
| Time | Temp. | Humidity | Pressure | Rain* | Wind** | Luminosity | Snow |
|---|---|---|---|---|---|---|---|
| 1777403927 | 18.33° C | 68% | 1012 hPa | 0 mm | - | 772 W/m² | - |
| 1777403626 | 18.33° C | 68% | 1011.9 hPa | 0 mm | - | 765 W/m² | - |
| 1777403321 | 18.33° C | 70% | 1011.7 hPa | 0 mm | - | 739 W/m² | - |
| 1777403016 | 17.78° C | 69% | 1011.8 hPa | 0 mm | - | 819 W/m² | - |
| 1777402711 | 17.78° C | 68% | 1011.8 hPa | 0 mm | - | 302 W/m² | - |
| 1777402412 | 17.78° C | 70% | 1011.9 hPa | 0 mm | - | 894 W/m² | - |
| 1777402111 | 17.78° C | 70% | 1011.8 hPa | 0 mm | - | 550 W/m² | - |
| 1777401806 | 17.78° C | 70% | 1011.8 hPa | 0 mm | - | 313 W/m² | - |
| 1777401505 | 18.33° C | 70% | 1011.9 hPa | 0 mm | - | 354 W/m² | - |
| 1777401201 | 18.33° C | 71% | 1011.9 hPa | 0 mm | - | 388 W/m² | - |
| 1777400897 | 18.33° C | 69% | 1011.8 hPa | 0 mm | - | 862 W/m² | - |
| 1777400593 | 17.78° C | 72% | 1011.9 hPa | 0 mm | - | 857 W/m² | - |
| 1777400291 | 17.78° C | 68% | 1012 hPa | 0 mm | - | 825 W/m² | - |
| 1777399986 | 17.78° C | 67% | 1012 hPa | 0 mm | - | 437 W/m² | - |
| 1777399683 | 17.78° C | 71% | 1011.9 hPa | 0 mm | - | 912 W/m² | - |
| 1777399380 | 17.78° C | 70% | 1011.9 hPa | 0 mm | - | 869 W/m² | - |
| 1777399078 | 17.78° C | 69% | 1011.8 hPa | 0 mm | - | 798 W/m² | - |
| 1777398774 | 17.78° C | 71% | 1011.8 hPa | 0 mm | - | 896 W/m² | - |
| 1777398472 | 17.22° C | 75% | 1012 hPa | 0 mm | - | 581 W/m² | - |
| 1777398169 | 17.22° C | 73% | 1012 hPa | 0 mm | - | 355 W/m² | - |
| 1777397865 | 17.22° C | 72% | 1012 hPa | 0 mm | - | 390 W/m² | - |
| 1777397561 | 16.67° C | 72% | 1012.1 hPa | 0 mm | - | 374 W/m² | - |
| 1777397257 | 16.67° C | 72% | 1012.2 hPa | 0 mm | - | 521 W/m² | - |
| 1777396954 | 16.67° C | 73% | 1011.9 hPa | 0 mm | - | 352 W/m² | - |
| 1777396651 | 16.11° C | 75% | 1012.2 hPa | 0 mm | - | 272 W/m² | - |
* Rain latest hour (hover to see other rain measurements)
** Current wind speed in m/s (hover to see current wind gust speed)